Вернуться в каталог

FENGYUN 1C DEB

LostPO
NORAD 40692·DEBRIS·🇨🇳 China

Запущен May 10, 1999 с Taiyuan Satellite Launch Center

Loading…

Ближайшие Пролёты (ближайшие 24 часа)

TLE

УстаревшееSource: Space-Track

Эпоха: Feb 27, 2025, 07:10 UTC

1 40692U 99025EWY 25058.29891271  .00006675  00000-0  32969-2 0  9990
2 40692  99.3114 243.2524 0084272  11.3825 348.9228 14.15899174522223

Отслеживайте FENGYUN 1C DEB в реальном времени с AllMySat

Download on the App Store